Regional Weather Roundup
Issued by NWS

Current Version | Previous Version | Text Only | Print | Product List | Glossary On
Versions: 1 2 3 4 5 6 7 8 9 10 11 12 13 14 15 16 17 18 19 20 21 22 23 24 25 26 27 28 29 30 31 32 33 34 35 36 37 38 39 40 41 42 43 44 45 46 47 48 49 50
000
ASPQ40 PGUM 012312
RWRPQ
WEATHER ROUNDUP FOR THE MARIANAS AND MICRONESIA
NATIONAL WEATHER SERVICE TIYAN GU
900 AM CHST SAT AUG 02 2014

GUZ001>004-020000-
MARIANA ISLANDS-

CITY           SKY/WX    TMP DP  RH WIND       PRES   REMARKS
GUAM AIRPORT   LGT RAIN  79  77  94 SE3       29.89R
ANDERSEN AFB   PTSUNNY   81  77  89 SW9       29.89R
ROTA AIRPORT   MOSUNNY   81  77  89 S6        29.89R
TINIAN AP      PTSUNNY   82  77  83 SE5       29.86R HX  91
SAIPAN AP      SUNNY     84  75  74 S7        29.88R HX  92

$$

PMZ161-020000-
REPUBLIC OF PALAU-

CITY           SKY/WX    TMP DP  RH WIND       PRES   REMARKS
KOROR AP       CLOUDY    84  82  94 S6        29.84R HX 101
KOROR WSO      CLOUDY    82  79  89 S7        29.84R HX  93

$$

PMZ171>174-020000-
FEDERATED STATES OF MICRONESIA-

CITY           SKY/WX    TMP DP  RH WIND       PRES   REMARKS
YAP AIRPORT    CLOUDY    82  77  83 SW10      29.82R HX  91
CHUUK AP       CLOUDY    84  77  79 VRB6      29.85R HX  94
POHNPEI AP     CLOUDY    86  77  74 S6        29.87R HX  97
POHNPEI WSO    CLOUDY    86  77  74 SW6       29.92R HX  97
KOSRAE AP      CLOUDY    84  79  84 W13       29.89S HX  96

$$

PMZ181-020000-
REPUBLIC OF THE MARSHALL ISLANDS-

CITY           SKY/WX    TMP DP  RH WIND       PRES   REMARKS
KWAJALEIN AP   SUNNY     86  72  62 W6        29.88S HX  92
MAJURO AP      PTSUNNY   88  77  70 NE8       29.86R HX 100
MAJURO WSO     PTSUNNY   88  77  70 NE3       29.86S HX 100

$$




USA.gov is the U.S. government's official web portal to all federal, state and local government web resources and services.